Дата Пункты Температура Давл., мм. Влажн., % Ветер Погодные явления
Воздуха Воды Направл. Скорость
16.02.19 11:00 Одесса 4.0 3.0 767 79 Пн-З 2 11 ГОДИН
16.02.19 08:00 Одесса 3.0 3.0 767 79 З 3 08 ГОДИН
16.02.19 05:00 Одесса 3.0 3.0 767 76 Пн-З 2 05 ГОДИН
16.02.19 02:00 Одесса 3.0 3.0 768 73 Пн-З 2 02 ГОДИНИ
15.02.19 11:00 Одесса 3.0 3.0 768 72 Пн 3 23 ГОДИНИ
15.02.19 08:00 Одесса 3.0 3.0 769 76 Пн 3 20 ГОДИН
15.02.19 05:00 Одесса 4.0 3.0 769 69 Пн 3 17 ГОДИН
15.02.19 02:00 Одесса 4.0 3.0 769 60 Пн-С 1 14 ГОДИН
15.02.19 11:00 Одесса 3.0 3.0 770 73 Пн-С 4 11 ГОДИН
15.02.19 08:00 Одесса 2.0 3.0 769 83 Пн-С 4 08 ГОДИН
15.02.19 05:00 Одесса 2.0 3.0 768 82 Пн-С 4 05 ГОДИН
15.02.19 02:00 Одесса 2.0 3.0 768 88 Пн 2 02 ГОДИНИ
14.02.19 11:00 Одесса 2.0 3.0 767 93 С 2 23 ГОДИНИ
14.02.19 08:00 Одесса 2.0 3.0 766 89 С 2 20 ГОДИН
14.02.19 05:00 Одесса 2.0 3.0 765 83 Пн 0 17 ГОДИН
14.02.19 02:00 Одесса 4.0 3.0 765 79 С 1 14 ГОДИН
14.02.19 11:00 Одесса 3.0 2.0 766 77 Пн 0 11 ГОДИН
14.02.19 08:00 Одесса 1.0 2.0 766 80 Пн 0 08 ГОДИН
14.02.19 02:00 Одесса -1.0 2.0 767 79 З 2 02 ГОДИНИ
13.02.19 11:00 Одесса -1.0 2.0 768 82 Пд-З 1 23 ГОДИНИ
Количество строк
1 2 3 4 5 6 7 8 9 10
Page 1 of 458